When you browse on this site, cookies collect data to enhance your experience and personalize the content and advertising you see.
Visit our Privacy Policy to learn more. By continuing to use the site, you agree to this use of cookies and data.
  • In Hungary
  • List of Countries
  • For 7 days
  • Water Temperature
  • Satellite Maps
  • Weather Map
  • News
  • Weather Widgets
  • user-avatar
    Login

    Hourly Weather Majkop

    Today, 10 December, Monday

    Time Temperature Precipitation Wind Pressure Humidity
    00:00 +4°C° 0 mm 2 mps 731 mmHg 56%
    01:00 +5°C° 0 mm 2 mps 730 mmHg 56%
    02:00 +5°C° 0 mm 2 mps 730 mmHg 55%
    03:00 +4°C° 0 mm 2 mps 730 mmHg 62%
    04:00 +5°C° 0 mm 2 mps 729 mmHg 61%
    05:00 +5°C° 0 mm 2 mps 729 mmHg 59%
    06:00 +5°C° 0 mm 2 mps 729 mmHg 58%
    07:00 +6°C° 0 mm 2 mps 728 mmHg 57%
    08:00 +6°C° 0 mm 2 mps 728 mmHg 56%
    09:00 +8°C° 0 mm 3 mps 728 mmHg 53%
    10:00 +9°C° 0 mm 3 mps 728 mmHg 50%
    11:00 +12°C° 0 mm 2 mps 728 mmHg 47%
    12:00 +14°C° 0 mm 2 mps 728 mmHg 44%
    13:00 +14°C° 0 mm 2 mps 728 mmHg 46%
    14:00 +13°C° 0 mm 2 mps 728 mmHg 48%
    15:00 +13°C° 0 mm 2 mps 728 mmHg 50%
    16:00 +12°C° 0.1 mm 2 mps 728 mmHg 55%
    17:00 +10°C° 0.1 mm 2 mps 728 mmHg 60%
    18:00 +8°C° 0.1 mm 2 mps 729 mmHg 65%
    19:00 +8°C° 0.1 mm 2 mps 729 mmHg 66%
    20:00 +8°C° 0.1 mm 2 mps 729 mmHg 67%
    21:00 +8°C° 0.1 mm 2 mps 729 mmHg 68%
    22:00 +7°C° 0 mm 2 mps 728 mmHg 69%
    23:00 +7°C° 0 mm 2 mps 728 mmHg 71%

    Tomorrow, 11 December, Tuesday

    Time Temperature Precipitation Wind Pressure Humidity
    00:00 +7°C° 0 mm 2 mps 728 mmHg 72%
    01:00 +7°C° 0 mm 2 mps 728 mmHg 72%
    02:00 +7°C° 0 mm 2 mps 727 mmHg 71%
    03:00 +7°C° 0 mm 2 mps 727 mmHg 71%
    04:00 +7°C° 0.1 mm 2 mps 727 mmHg 70%
    05:00 +7°C° 0.1 mm 3 mps 726 mmHg 69%
    06:00 +7°C° 0.1 mm 3 mps 726 mmHg 69%
    07:00 +8°C° 0 mm 3 mps 725 mmHg 67%
    08:00 +8°C° 0 mm 3 mps 725 mmHg 66%
    09:00 +9°C° 0 mm 3 mps 725 mmHg 65%
    10:00 +10°C° 0 mm 3 mps 724 mmHg 61%
    11:00 +12°C° 0 mm 3 mps 724 mmHg 57%
    12:00 +13°C° 0 mm 3 mps 723 mmHg 54%
    13:00 +12°C° 0.7 mm 3 mps 724 mmHg 60%
    14:00 +12°C° 0.7 mm 3 mps 724 mmHg 67%
    15:00 +11°C° 0.7 mm 3 mps 724 mmHg 74%
    16:00 +10°C° 1 mm 3 mps 725 mmHg 77%
    17:00 +9°C° 1 mm 3 mps 725 mmHg 80%
    18:00 +9°C° 1 mm 3 mps 726 mmHg 83%
    19:00 +8°C° 0.9 mm 4 mps 726 mmHg 82%
    20:00 +7°C° 0.9 mm 4 mps 727 mmHg 81%
    21:00 +7°C° 0.9 mm 4 mps 727 mmHg 80%
    22:00 +7°C° 0.2 mm 4 mps 728 mmHg 80%
    23:00 +7°C° 0.2 mm 4 mps 728 mmHg 79%

    Day after tomorrow, 12 December, Wednesday

    Time Temperature Precipitation Wind Pressure Humidity
    00:00 +7°C° 0.2 mm 4 mps 729 mmHg 78%
    01:00 +6°C° 0.2 mm 4 mps 729 mmHg 79%
    02:00 +6°C° 0.2 mm 4 mps 729 mmHg 80%
    03:00 +7°C° 0.2 mm 3 mps 730 mmHg 80%
    04:00 +5°C° 0.1 mm 3 mps 730 mmHg 81%
    05:00 +5°C° 0.1 mm 3 mps 730 mmHg 82%
    06:00 +6°C° 0.1 mm 2 mps 730 mmHg 83%
    07:00 +6°C° 0 mm 2 mps 730 mmHg 84%
    08:00 +5°C° 0 mm 2 mps 731 mmHg 84%
    09:00 +5°C° 0 mm 2 mps 731 mmHg 84%
    10:00 +8°C° 0 mm 1 mps 730 mmHg 79%
    11:00 +9°C° 0 mm 1 mps 730 mmHg 73%
    12:00 +10°C° 0 mm 1 mps 729 mmHg 68%
    13:00 +10°C° 0 mm 1 mps 729 mmHg 70%
    14:00 +10°C° 0 mm 1 mps 729 mmHg 73%
    15:00 +9°C° 0 mm 1 mps 728 mmHg 75%
    16:00 +8°C° 0 mm 2 mps 728 mmHg 79%
    17:00 +7°C° 0 mm 2 mps 728 mmHg 83%
    18:00 +6°C° 0 mm 2 mps 728 mmHg 87%
    19:00 +6°C° 0 mm 2 mps 728 mmHg 87%
    20:00 +6°C° 0 mm 2 mps 728 mmHg 87%
    21:00 +6°C° 0 mm 2 mps 728 mmHg 87%
    22:00 +6°C° 0.2 mm 2 mps 728 mmHg 88%
    23:00 +5°C° 0.2 mm 2 mps 729 mmHg 88%

    13 December, Thursday

    Time Temperature Precipitation Wind Pressure Humidity
    00:00 +5°C° 0.2 mm 2 mps 729 mmHg 89%
    01:00 +5°C° 0.7 mm 2 mps 730 mmHg 90%
    02:00 +5°C° 0.7 mm 2 mps 730 mmHg 91%
    03:00 +4°C° 0.7 mm 2 mps 731 mmHg 92%
    04:00 +3°C° 1.2 mm 3 mps 731 mmHg 92%
    05:00 +2°C° 1.2 mm 3 mps 732 mmHg 91%
    06:00 +1°C° 1.2 mm 4 mps 733 mmHg 91%
    07:00 +2°C° 0.4 mm 3 mps 733 mmHg 90%
    08:00 +2°C° 0.4 mm 3 mps 734 mmHg 89%
    09:00 +2°C° 0.4 mm 2 mps 735 mmHg 89%
    10:00 +3°C° 0 mm 2 mps 735 mmHg 85%
    11:00 +4°C° 0 mm 2 mps 736 mmHg 80%
    12:00 +6°C° 0 mm 1 mps 736 mmHg 76%
    13:00 +6°C° 0 mm 1 mps 736 mmHg 75%
    14:00 +6°C° 0 mm 1 mps 736 mmHg 74%
    15:00 +6°C° 0 mm 1 mps 737 mmHg 73%
    16:00 +5°C° 0 mm 1 mps 737 mmHg 78%
    17:00 +4°C° 0 mm 1 mps 737 mmHg 82%
    18:00 +3°C° 0 mm 1 mps 737 mmHg 87%
    19:00 +3°C° 0 mm 1 mps 737 mmHg 85%
    20:00 +2°C° 0 mm 2 mps 738 mmHg 84%
    21:00 +1°C° 0 mm 2 mps 738 mmHg 83%
    22:00 +1°C° 0 mm 2 mps 738 mmHg 81%
    23:00 +1°C° 0 mm 2 mps 738 mmHg 79%

    14 December, Friday

    Time Temperature Precipitation Wind Pressure Humidity
    00:00 +1°C° 0 mm 2 mps 738 mmHg 78%
    01:00 +1°C° 0 mm 2 mps 738 mmHg 77%
    02:00 +1°C° 0 mm 2 mps 738 mmHg 76%
    03:00 +1°C° 0 mm 2 mps 737 mmHg 76%
    04:00 +1°C° 0 mm 2 mps 737 mmHg 74%
    05:00 +1°C° 0 mm 2 mps 737 mmHg 73%
    06:00 -1°C° 0 mm 2 mps 737 mmHg 71%
    07:00 +1°C° 0 mm 2 mps 737 mmHg 69%
    08:00 +2°C° 0 mm 1 mps 736 mmHg 67%
    09:00 +3°C° 0 mm 1 mps 736 mmHg 65%
    10:00 +4°C° 0 mm 1 mps 736 mmHg 62%
    11:00 +5°C° 0 mm 1 mps 736 mmHg 59%
    12:00 +6°C° 0 mm 1 mps 736 mmHg 57%
    13:00 +6°C° 0 mm 1 mps 736 mmHg 59%
    14:00 +6°C° 0 mm 1 mps 736 mmHg 62%
    15:00 +6°C° 0 mm 1 mps 737 mmHg 64%
    16:00 +5°C° 0 mm 1 mps 737 mmHg 67%
    17:00 +4°C° 0 mm 1 mps 737 mmHg 70%
    18:00 +4°C° 0 mm 1 mps 737 mmHg 73%
    19:00 +3°C° 0 mm 1 mps 737 mmHg 73%
    20:00 +3°C° 0 mm 1 mps 738 mmHg 74%
    21:00 +3°C° 0 mm 1 mps 738 mmHg 74%
    22:00 +3°C° 0 mm 1 mps 738 mmHg 75%
    23:00 +3°C° 0 mm 1 mps 738 mmHg 76%

    15 December, Saturday

    Time Temperature Precipitation Wind Pressure Humidity
    00:00 +2°C° 0 mm 1 mps 738 mmHg 76%
    01:00 +2°C° 0.2 mm 1 mps 738 mmHg 78%
    02:00 +3°C° 0.2 mm 1 mps 738 mmHg 80%
    03:00 +3°C° 0.2 mm 1 mps 739 mmHg 81%
    04:00 +3°C° 0.6 mm 1 mps 739 mmHg 83%
    05:00 +3°C° 0.6 mm 1 mps 739 mmHg 84%
    06:00 +3°C° 0.6 mm 1 mps 739 mmHg 85%
    07:00 +3°C° 0.6 mm 1 mps 739 mmHg 87%
    08:00 +3°C° 0.6 mm 1 mps 740 mmHg 89%
    09:00 +3°C° 0.6 mm 1 mps 740 mmHg 91%
    10:00 +4°C° 0.1 mm 1 mps 740 mmHg 88%
    11:00 +5°C° 0.1 mm 1 mps 741 mmHg 85%
    12:00 +6°C° 0.1 mm 1 mps 741 mmHg 82%
    13:00 +6°C° 0 mm 1 mps 741 mmHg 83%
    14:00 +6°C° 0 mm 1 mps 741 mmHg 84%
    15:00 +5°C° 0 mm 2 mps 741 mmHg 84%
    16:00 +5°C° 0.1 mm 1 mps 741 mmHg 87%
    17:00 +4°C° 0.1 mm 1 mps 742 mmHg 91%
    18:00 +3°C° 0.1 mm 1 mps 742 mmHg 94%
    19:00 +3°C° 0 mm 1 mps 742 mmHg 94%
    20:00 +2°C° 0 mm 1 mps 743 mmHg 93%
    21:00 +2°C° 0 mm 1 mps 743 mmHg 93%
    22:00 +2°C° 0 mm 1 mps 743 mmHg 92%
    23:00 +2°C° 0 mm 1 mps 743 mmHg 92%
    Show more